SCP
0 0 0 0 0 0 0 0 0 0 0 0 0 0 0 0 0 0 0 0 0 0 0 0 0 0 0 0 0 0 0 0 0 0 0 0 0 0 0 0 0 0 0 0
0 0 0 0 0 0 0 0 0 0 0 0 0 0 0 0 0 0 0 0 0 0 0 0 0 0 0 0 0 0 0 0 0 0 0 0 0 0 0 0 0 0 0 0
0 0 0 0 0 0 0 0 0 0 0 0 0 0 0 0 0 0 0 0 0 0 0 0 0 0 0 0 0 0 0 0 0 0 0 0 0 0 0 0 0 0 0 0
0 0 0 0 0 0 0 0 0 0 0 0 0 0 0 0 0 0 0 0 0 0 0 0 0 0 0 0 0 0 0 0 0 0 0 0 0 0 0 0 0 0 0 0
0 0 0 0 0 0 0 0 0 0 0 0 0 0 0 0 0 0 0 0 0 0 0 0 0 0 0 0 0 0 0 0 0 0 0 0 0 0 0 0 0 0 0 0
0 0 0 0 0 0 0 0 0 0 0 0 0 0 0 0 0 0 0 0 0 0 0 0 0 0 0 0 0 0 0 0 0 0 0 0 0 0 0 0 0 0 0 0
0 0 0 0 0 0 0 0 0 0 0 0 0 0 0 0 0 0 0 0 0 0 0 0 0 0 0 0 0 0 0 0 0 0 0 0 0 0 0 0 0 0 0 0
0 0 0 0 0 0 0 0 0 0 0 0 0 0 0 0 0 0 0 0 0 0 0 0 0 0 0 0 0 0 0 0 0 0 0 0 0 0 0 0 0 0 0 0
0 0 0 0 0 0 0 0 0 0 0 0 0 0 0 0 0 0 0 0 0 0 0 0 0 0 0 0 0 0 0 0 0 0 0 0 0 0 0 0 0 0 0 0
0 0 0 0 0 0 0 0 0 0 0 0 0 0 0 0 0 0 0 0 0 0 0 0 0 0 0 0 0 0 0 0 0 0 0 0 0 0 0 0 0 0 0 0
0 0 0 0 0 0 0 0 0 0 0 0 0 0 0 0 0 0 0 0 0 0 0 0 0 0 0 0 0 0 0 0 0 0 0 0 0 0 0 0 0 0 0 0
0 0 0 0 0 0 0 0 0 0 0 0 0 0 0 0 0 0 0 0 0 0 0 0 0 0 0 0 0 0 0 0 0 0 0 0 0 0 0 0 0 0 0 0
0 0 0 0 0 0 0 0 0 0 0 0 0 0 0 0 0 0 0 0 0 0 0 0 0 0 0 0 0 0 0 0 0 0 0 0 0 0 0 0 0 0 0 0
0 0 0 0 0 0 0 0 0 0 0 0 0 0 0 0 0 0 0 0 0 0 0 0 0 0 0 0 0 0 0 0 0 0 0 0 0 0 0 0 0 0 0 0
0 0 0 0 0 0 0 0 0 0 0 0 0 0 0 0 0 0 0 0 0 0 0 0 0 0 0 0 0 0 0 0 0 0 0 0 0 0 0 0 0 0 0 0
0 0 0 0 0 0 0 0 0 0 0 0 0 0 0 0 0 0 0 0 0 0 0 0 0 0 0 0 0 0 0 0 0 0 0 0 0 0 0 0 0 0 0 0
0 0 0 0 0 0 0 0 0 0 0 0 0 0 0 0 0 0 0 0 0 0 0 0 0 0 0 0 0 0 0 0 0 0 0 0 0 0 0 0 0 0 0 0
0 0 0 0 0 0 0 0 0 0 0 0 0 0 0 0 0 0 0 0 0 0 0 0 0 0 0 0 0 0 0 0 0 0 0 0 0 0 0 0 0 0 0 0
0 0 0 0 0 0 0 0 0 0 0 0 0 0 0 0 0 0 0 0 0 0 0 0 0 0 0 0 0 0 0 0 0 0 0 0 0 0 0 0 0 0 0 0
0 0 0 0 0 0 0 0 0 0 0 0 0 0 0 0 0 0 0 0 0 0 0 0 0 0 0 0 0 0 0 0 0 0 0 0 0 0 0 0 0 0 0 0
0 0 0 0 0 0 0 0 0 0 0 0 0 0 0 0 0 0 0 0 0 0 0 0 0 0 0 0 0 0 0 0 0 0 0 0 0 0 0 0 0 0 0 0
0 0 0 0 0 0 0 0 0 0 0 0 0 0 0 0 0 0 0 0 0 0 0 0 0 0 0 0 0 0 0 0 0 0 0 0 0 0 0 0 0 0 0 0
0 0 0 0 0 0 0 0 0 0 0 0 0 0 0 0 0 0 0 0 0 0 0 0 0 0 0 0 0 0 0 0 0 0 0 0 0 0 0 0 0 0 0 0
0 0 0 0 0 0 0 0 0 0 0 0 0 0 0 0 0 0 0 0 0 0 0 0 0 0 0 0 0 0 0 0 0 0 0 0 0 0 0 0 0 0 0 0
0 0 0 0 0 0 0 0 0 0 0 0 0 0 0 0 0 0 0 0 0 0 0 0 0 0 0 0 0 0 0 0 0 0 0 0 0 0 0 0 0 0 0 0
0 0 0 0 0 0 0 0 0 0 0 0 0 0 0 0 0 0 0 0 0 0 0 0 0 0 0 0 0 0 0 0 0 0 0 0 0 0 0 0 0 0 0 0
Wind_Speed
2 3 4 8 8 6 4 5 9 11 5 5 11 17 21 10 11 17 14 15 18 17 10 10 10 8 7 6 6 5 3 3 2 1 2 3 3 3 3 3 4 5 5 6
2 7 8 3 4 4 4 5 8 9 2 5 9 15 18 16 12 16 17 20 22 16 11 12 10 8 8 7 6 5 4 3 3 3 2 3 4 4 4 3 4 6 6 6
11 5 4 5 4 5 5 7 7 7 7 5 7 10 10 11 7 8 11 16 17 19 18 16 14 10 8 8 7 5 4 3 4 3 2 2 3 3 3 3 3 5 6 7
8 4 5 5 7 8 8 7 6 3 4 6 3 12 7 10 10 12 12 13 15 15 16 15 15 11 10 9 7 6 3 3 3 3 2 3 3 4 4 4 5 7 7 8
9 5 6 8 9 10 8 2 3 1 3 5 5 11 9 5 10 18 13 13 14 16 18 17 15 13 9 8 7 6 3 2 3 3 3 4 5 5 5 5 7 7 6 7
6 3 7 7 1 5 5 4 4 3 2 8 8 10 11 8 12 11 7 6 10 12 13 12 11 10 9 8 7 5 3 3 3 3 3 4 6 7 8 8 8 7 6 6
6 4 3 4 5 2 4 5 4 7 4 11 3 7 16 13 13 10 9 6 8 11 14 14 15 14 11 9 8 6 4 3 3 4 4 5 6 6 7 9 9 10 9 8
6 9 8 7 9 10 7 10 9 7 8 10 5 14 13 12 11 8 7 7 7 12 15 17 17 15 11 10 9 7 5 4 3 4 5 5 6 5 5 8 9 11 10 10
11 10 1 3 3 12 8 7 5 5 3 9 13 13 11 9 11 9 9 8 11 14 16 16 14 12 10 9 9 7 5 4 3 4 5 6 6 6 7 9 10 10 10 12
11 7 4 2 3 0 5 8 6 6 6 10 15 12 10 9 12 13 10 11 12 11 13 13 14 12 10 8 7 6 5 3 3 4 4 6 6 7 8 10 12 12 13 15
8 9 4 3 12 14 9 6 7 6 6 9 11 18 9 11 11 11 13 13 12 14 17 17 14 12 10 8 8 6 4 2 3 4 5 6 7 8 9 11 12 13 14 16
8 7 9 12 5 3 8 12 14 12 12 9 8 24 7 10 11 11 11 10 10 13 14 13 13 11 10 9 7 5 3 3 3 4 5 6 8 9 11 12 12 14 15 16
12 8 6 8 3 4 8 9 14 10 6 9 12 24 3 4 8 8 8 9 8 11 12 12 12 12 11 9 7 5 4 3 3 4 5 7 8 10 11 12 13 14 16 17
13 12 16 22 15 11 9 11 13 13 11 15 25 32 26 11 18 13 9 11 11 12 14 14 14 12 11 9 7 6 4 3 3 3 5 8 9 10 12 13 14 14 15 16
9 13 15 21 18 10 14 22 21 22 23 22 26 31 35 19 22 16 11 11 11 12 15 18 17 13 10 9 7 5 3 1 2 3 5 7 10 11 12 13 13 14 15 16
6 9 9 18 14 9 15 30 18 25 24 28 29 39 30 23 18 17 15 11 13 17 19 18 17 16 13 10 7 5 2 1 2 3 6 8 11 11 13 13 14 14 15 15
9 9 9 19 10 4 28 33 17 18 14 15 31 40 31 29 27 20 14 12 16 17 17 18 18 16 12 9 8 5 2 1 3 4 5 8 10 11 13 14 14 15 15 16
12 9 8 11 7 20 32 11 16 25 31 30 23 27 30 31 23 13 8 11 13 13 15 17 15 12 11 9 8 5 2 0 2 3 4 7 9 11 12 14 14 15 15 15
17 15 9 9 18 22 34 22 10 11 28 24 21 29 32 22 11 21 13 13 12 14 13 14 13 12 12 10 8 5 3 1 2 4 6 7 8 10 12 14 15 15 15 16
15 16 15 15 19 22 32 11 11 10 34 31 20 28 29 12 10 23 6 10 9 12 14 15 14 15 13 9 7 5 3 1 2 4 6 7 8 8 11 14 16 15 15 16
9 11 19 26 27 18 16 6 14 14 30 15 17 24 21 18 20 5 9 9 12 15 17 17 16 13 11 9 7 6 4 2 2 4 6 7 8 9 11 13 14 14 15 15
19 15 16 15 20 22 13 17 23 31 24 10 10 12 13 14 7 10 12 15 17 17 17 17 15 13 10 9 8 7 5 2 2 4 5 6 7 8 8 11 13 13 13 14
22 24 17 20 19 14 19 29 30 26 23 16 11 9 11 12 12 14 14 17 17 17 16 15 16 14 10 8 7 7 4 2 3 4 4 6 8 8 9 10 12 11 11 11
11 11 13 14 15 18 19 24 28 21 19 14 12 12 15 14 16 17 17 17 18 16 16 15 16 14 10 8 6 5 5 3 2 3 4 5 7 9 10 8 8 9 10 11
13 9 12 21 23 23 27 30 28 15 10 10 10 12 17 16 16 19 19 19 18 15 14 14 14 13 12 10 7 6 4 3 2 3 4 5 6 7 9 9 8 10 9 13
16 18 21 23 21 25 32 32 17 16 19 18 15 12 12 16 19 21 19 19 19 18 16 14 13 13 12 10 8 6 4 3 3 4 4 4 5 6 7 8 10 13 15 21
Wind_Direction
66 92 212 220 204 199 187 218 254 258 245 238 245 257 271 254 215 232 223 213 215 214 200 186 186 181 169 174 172 168 178 209 205 215 270 281 280 287 294 291 316 323 318 326
77 241 226 179 161 167 186 240 261 280 285 231 260 261 265 264 233 230 224 218 215 205 195 191 187 184 182 180 176 172 195 220 209 203 222 240 261 274 271 282 305 300 301 310
198 222 145 145 169 186 216 217 236 258 321 297 306 282 256 270 248 247 230 223 214 204 199 191 188 189 186 185 183 182 202 225 219 216 232 269 271 273 263 269 281 282 284 286
235 235 160 186 207 179 248 232 222 272 320 289 314 287 244 261 283 264 242 223 212 200 196 190 188 187 189 191 183 186 206 233 233 224 231 263 267 264 257 273 279 285 280 280
235 199 179 205 219 180 216 135 157 226 244 280 233 251 269 268 271 267 252 225 214 202 195 190 186 184 187 180 177 184 200 242 247 241 245 266 265 256 270 280 281 281 273 271
250 211 193 204 140 165 135 87 64 60 71 277 226 209 266 223 220 246 257 231 213 196 191 185 180 178 179 174 174 178 198 241 251 262 267 267 275 284 299 307 302 294 283 271
269 251 221 149 116 91 122 107 341 327 310 254 213 231 249 234 228 230 255 259 215 189 184 182 182 182 180 179 181 181 200 238 262 278 277 271 275 281 288 298 299 297 292 285
218 261 217 190 177 168 179 163 176 223 251 277 282 246 248 242 246 242 247 252 220 194 191 191 188 182 181 181 181 183 202 231 261 279 282 280 285 280 277 283 286 287 287 288
192 240 131 181 181 145 159 205 183 160 275 289 265 264 292 266 264 250 246 241 223 202 195 192 185 181 180 181 182 184 197 225 258 277 285 286 280 278 283 287 287 286 287 292
176 229 210 153 112 127 164 150 125 163 215 261 276 266 248 242 244 248 239 233 228 202 195 192 186 183 182 180 174 176 188 222 263 276 276 290 286 284 288 292 292 292 292 292
173 197 226 172 201 188 151 165 177 175 187 197 267 270 203 209 215 227 228 224 215 199 197 195 190 182 174 168 171 177 186 228 259 266 271 286 294 298 297 294 292 293 292 291
183 169 236 228 222 209 197 189 170 188 222 208 233 268 168 199 214 233 238 225 211 203 197 191 185 175 170 171 175 177 190 233 255 266 289 305 307 305 298 294 295 296 294 292
153 160 239 291 252 195 223 217 210 216 190 193 220 263 189 238 256 248 241 235 216 200 191 186 184 181 176 173 175 180 200 233 261 288 314 312 307 301 298 299 299 297 295 295
155 179 206 230 231 177 210 222 207 197 215 226 231 250 259 252 265 258 229 229 218 203 195 192 191 184 174 170 173 183 204 235 286 322 321 310 306 304 302 300 298 298 298 299
163 218 230 243 243 178 210 229 211 209 220 230 244 248 256 257 261 268 254 226 212 202 200 199 192 180 171 168 169 174 189 241 326 326 315 306 307 305 302 300 300 302 302 302
191 230 247 255 246 204 244 249 223 222 230 238 250 258 260 268 274 271 264 237 214 209 206 198 185 179 174 169 160 153 145 7 334 314 312 314 308 307 306 305 309 310 308 306
187 198 225 254 247 179 246 245 223 224 213 214 242 256 271 272 266 261 258 229 219 212 201 188 181 174 162 148 138 136 127 360 320 316 311 306 308 309 311 314 314 313 311 306
192 200 217 250 226 233 253 251 220 239 245 232 238 258 262 264 274 272 229 217 216 203 189 179 166 147 129 119 117 118 110 19 320 303 295 304 315 315 317 316 313 312 310 310
206 202 201 213 240 253 266 254 172 219 260 245 231 253 261 268 292 274 225 205 202 187 169 157 145 132 124 123 121 121 127 108 311 315 314 318 321 319 318 314 312 311 311 308
207 208 215 224 238 241 256 267 166 189 258 256 211 238 253 248 251 268 223 171 155 140 134 131 125 120 120 121 123 129 136 164 310 316 317 323 323 317 312 308 308 310 308 303
180 209 224 233 241 245 255 164 136 198 251 262 203 219 227 212 223 231 120 127 131 130 130 128 124 122 125 128 132 139 154 172 303 318 326 326 320 314 306 303 305 306 306 306
197 200 213 224 239 245 201 160 196 231 246 233 207 204 205 208 167 138 145 140 137 135 135 132 126 124 128 135 144 154 159 157 355 349 336 320 311 309 309 304 304 307 308 310
208 209 210 209 223 225 182 202 222 232 239 232 208 197 189 181 173 162 156 151 147 144 140 135 130 131 136 145 157 158 144 95 30 359 334 315 315 317 309 304 307 312 312 319
227 222 224 232 231 228 219 222 232 231 232 229 200 188 182 185 174 163 158 155 150 149 142 139 139 143 148 153 147 140 121 98 64 12 345 334 330 318 314 311 314 314 321 328
220 199 223 239 239 247 246 237 235 227 216 208 197 191 191 179 170 166 161 157 155 150 146 150 153 151 150 151 143 133 117 106 70 42 11 345 323 309 313 317 315 318 330 332
224 221 225 233 229 231 245 248 237 211 213 208 196 197 193 182 173 164 161 157 155 152 152 153 150 147 148 147 140 127 112 107 87 56 22 346 323 315 314 315 317 332 345 342